SCP
0 0 0 0 0 0 0 0 0 -0 -0 -0 -0 -0 -0 -0 -0 -0 -0 -0 -0 -0 -0 -0 -0 -0 -0 -0 -0 -0 -0 -0 -0 -0 -0 -0 -0 -0 -0 -0 -0 -0 -0
0 0 0 0 0 0 0 0 0 0 0 -0 -0 -0 -0 -0 -0 -0 -0 -0 -0 -0 -0 -0 -0 -0 -0 -0 -0 -0 -0 -0 -0 -0 -0 -0 -0 -0 -0 -0 -0 -0 -0
0 0 0 0 0 0 0 0 0 0 0 0 0 -0 -0 -0 -0 -0 -0 -0 -0 -0 -0 -0 -0 -0 -0 -0 -0 -0 -0 -0 -0 -0 -0 -0 -0 -0 -0 -0 -0 -0 -0
0 0 0 0 0 0 0 0 0 0 0 0 -0 -0 -0 -0 -0 -0 -0 -0 -0 -0 -0 -0 -0 -0 -0 -0 -0 -0 -0 -0 -0 -0 -0 -0 -0 -0 -0 -0 -0 -0 -0
0 0 0 0 0 0 0 0 0 0 0 0 0 -0 -0 -0 -0 -0 -0 -0 -0 -0 -0 -0 -0 -0 -0 -0 -0 -0 -0 -0 -0 -0 0 0 0 -0 -0 -0 -0 -0 -0
0 0 0 0 0 0 0 -0 -0 0 -0 -0 -0 -0 -0 -0 -0 -0 -0 -0 -0 -0 -0 -0 -0 -0 -0 -0 -0 -0 -0 -0 -0 0 0 0 0 -0 -0 -0 -0 -0 -0
0 0 0 0 0 0 0 0 -0 -0 -0 -0 -0 -0 -0 -0 -0 -0 -0 -0 -0 -0 -0 -0 -0 -0 -0 -0 -0 -0 -0 -0 0 0 0 0 0 -0 -0 -0 -0 -0 -0
-0 0 0 0 0 0 0 0 -0 -0 -0 -0 -0 -0 -0 -0 -0 -0 -0 -0 -0 -0 -0 -0 -0 -0 -0 -0 -0 -0 -0 -0 0 0 0 0 0 0 0 0 0 0 0
-0 -0 0 0 0 0 0 0 0 -0 -0 -0 -0 -0 -0 -0 -0 -0 0 -0 -0 -0 -0 -0 -0 0 0 0 0 0 0 0 0 0 0 0 0 0 0 0 0 0 0
-0 -0 0 0 0 0 0 0 0 0 -0 -0 -0 -0 -0 -0 -0 0 0 -0 -0 -0 -0 0 0 0 0 0 0 0 0 0 0 0 0 0 0 0 0 0 0 0 0
-0 -0 -0 -0 0 0 0 0 0 0 0 -0 0 -0 0 0 0 0 0 -0 -0 -0 -0 0 0 0 0 0 0 0 0 0 0 0 0 0 0 0 0 0 0 0 0
-0 -0 -0 -0 -0 -0 0 0 0 -0 0 0 0 0 0 0 0 0 0 -0 -0 -0 0 0 0 0 0 0 0 0 0 0 0 0 0 0 0 0 0 0 0 0 0
-0 -0 -0 -0 -0 -0 -0 0 0 0 -0 0 -0 0 0 0 0 0 0 0 0 0 0 0 0 0 0 0 0 0 0 0 0 0 0 0 0 0 0 0 0 0 0
-0 -0 -0 -0 -0 -0 -0 0 -0 0 0 0 -0 -0 0 0 0 0 0 0 0 0 0 0 0 0 0 0 0 0 0 0 0 0 0 0 0 0 0 0 0 0 0
-0 -0 -0 -0 -0 -0 -0 -0 -0 0 0 -0 -0 -0 -0 0 0 0 0 0 0 0 0 0 0 0 0 0 0 0 0 0 0 0 0 0 0 0 0 0 0 0 0
-0 -0 0 -0 -0 -0 0 -0 -0 0 0 0 -0 -0 -0 0 0 0 0 0 0 0 0 0 0 0 0 0 0 0 0 0 0 0 0 0 0 0 0 0 0 0 0
-0 0 -0 -0 -0 0 0 0 0 0 0 0 0 -0 -0 0 0 0 0 0 0 0 0 0 0 0 0 0 0 0 0 0 0 0 0 0 0 0 0 0 0 0 0
0 0 0 0 0 0 0 0 0 0 0 0 0 0 0 0 0 0 0 0 0 0 0 0 0 0 0 0 0 0 0 0 0 0 0 0 0 0 0 0 0 0 0
0 0 0 0 0 0 0 0 0 0 0 0 0 0 0 0 0 0 0 0 0 0 0 0 0 0 0 0 0 0 0 0 0 0 0 0 0 0 0 0 0 0 0
0 0 0 0 0 0 0 0 0 0 0 0 0 0 0 0 0 0 0 0 0 0 0 0 0 0 0 0 0 0 0 0 0 0 0 0 0 0 0 0 0 0 0
0 0 0 0 0 0 0 0 0 0 0 0 0 0 0 0 0 0 0 0 0 0 0 0 0 0 0 0 0 0 0 0 0 0 0 0 0 0 0 0 0 0 0
0 0 0 0 0 0 0 0 0 0 0 0 0 0 0 0 0 0 0 0 0 0 0 0 0 0 0 0 0 0 0 0 0 0 0 0 0 0 0 0 0 0 0
0 0 0 0 0 0 0 0 0 0 0 0 0 0 0 0 0 0 0 0 0 0 0 0 0 0 0 0 0 0 0 0 0 0 0 0 0 0 0 0 0 0 0
0 0 0 0 0 0 0 0 0 0 0 0 0 0 0 0 0 0 0 0 0 0 0 0 0 0 0 0 0 0 0 0 0 0 0 0 0 0 0 0 0 0 0
0 0 0 0 0 0 0 0 0 0 0 0 0 0 0 0 0 0 0 0 0 0 0 0 0 0 0 0 0 0 0 0 0 0 0 0 0 0 0 0 0 0 0
0 0 0 0 0 0 0 0 0 0 0 0 0 0 0 0 0 0 0 0 0 0 0 0 0 0 0 0 0 0 0 0 0 0 0 0 0 0 0 0 0 0 0
Wind_Speed_500mb
29 22 19 19 19 21 24 27 29 27 29 28 36 28 25 27 27 27 25 22 18 24 31 33 35 35 40 42 41 40 42 41 40 41 41 41 38 37 36 37 36 37 38
35 25 23 23 22 23 23 27 30 30 29 31 39 27 21 28 34 39 34 30 30 28 32 30 36 42 43 41 39 38 36 34 33 32 33 33 29 28 27 23 24 25 24
32 27 26 25 26 25 23 25 30 31 29 34 38 27 24 33 34 34 33 34 36 33 33 35 35 36 38 37 33 29 26 26 21 19 25 33 28 24 16 15 15 18 22
34 28 28 27 26 26 25 24 29 32 29 31 32 29 26 30 30 30 29 32 33 34 31 30 30 33 37 34 31 24 23 17 22 21 21 27 20 18 22 23 24 20 18
36 30 29 29 27 25 24 25 27 30 30 27 25 22 29 34 31 29 29 32 33 35 35 35 33 36 36 33 31 30 25 25 21 18 23 23 25 22 19 19 23 27 27
38 31 29 29 27 26 23 25 25 26 28 28 26 23 28 29 31 31 37 32 35 29 32 29 31 35 35 31 26 27 20 18 21 23 22 21 24 24 21 19 20 25 28
36 31 30 29 27 26 24 23 24 22 25 26 25 26 28 30 21 21 31 29 33 24 30 33 36 37 34 27 22 22 19 22 18 18 13 17 18 18 13 10 14 23 22
31 32 31 30 28 25 25 22 22 21 21 22 22 23 22 20 17 21 28 32 25 27 28 30 29 28 28 24 18 15 17 12 12 9 10 18 16 15 14 11 14 22 16
26 28 30 31 29 26 25 22 21 19 17 18 19 18 16 15 15 14 17 22 23 21 23 25 24 22 24 19 15 11 8 7 7 15 16 17 14 16 15 11 23 16 16
22 24 32 31 29 26 24 22 18 17 16 15 15 14 13 13 13 13 15 20 18 17 19 20 19 19 17 16 10 10 7 9 7 11 14 11 9 8 9 8 14 12 19
23 21 34 32 30 27 25 22 20 17 14 12 11 10 9 9 11 13 13 13 16 16 18 16 15 14 14 14 7 5 8 10 12 13 12 18 12 10 13 10 6 12 18
31 26 27 30 32 29 25 22 19 16 13 10 9 9 8 7 9 8 8 8 10 16 16 15 13 11 12 13 7 6 6 9 14 11 10 10 5 3 2 4 4 15 13
38 34 32 27 36 33 29 26 22 19 16 14 12 10 8 5 4 4 4 4 7 10 12 10 8 5 7 7 5 4 4 9 13 10 8 7 6 3 3 2 4 2 10
43 40 40 39 37 31 28 27 25 24 22 21 19 16 10 6 4 4 4 5 6 7 7 5 3 2 2 1 2 2 3 6 7 8 7 6 0 3 6 1 1 3 7
53 50 46 44 45 41 33 31 31 30 29 21 19 19 17 14 10 10 8 9 10 9 8 6 4 3 4 4 5 4 6 8 9 7 10 8 8 6 4 6 8 7 10
39 50 55 51 47 47 42 36 31 30 28 29 27 23 20 20 19 15 11 12 12 13 11 9 8 7 7 6 7 6 7 10 13 13 11 11 12 13 13 12 13 10 15
32 33 48 52 52 50 51 45 40 37 34 33 30 30 22 25 24 22 17 15 16 16 16 15 13 11 10 9 9 11 14 14 17 21 21 20 20 21 20 21 21 20 18
33 37 35 40 48 52 53 52 47 42 39 37 36 35 30 30 30 28 26 22 20 22 21 19 16 15 13 13 15 18 21 24 26 28 31 33 32 32 30 30 31 30 28
39 35 36 38 40 47 50 51 53 51 46 42 40 38 35 32 35 35 32 29 28 27 25 24 23 21 21 22 25 26 29 33 34 37 38 40 43 44 43 39 39 40 39
37 38 38 40 41 40 49 50 52 53 52 49 48 43 39 37 33 40 39 36 35 32 31 30 29 29 28 31 35 36 40 43 45 47 48 50 50 51 53 54 51 51 48
40 40 43 40 39 43 48 55 55 56 57 57 57 52 46 41 38 33 37 41 42 39 34 33 34 35 36 44 49 51 54 53 53 55 57 57 58 57 56 59 62 61 63
46 45 43 43 41 43 45 45 55 55 56 53 54 55 52 50 45 38 36 39 39 37 38 41 40 44 45 51 51 53 56 60 61 55 55 50 50 45 48 59 62 66 67
55 55 51 50 52 51 48 44 44 47 51 53 57 54 54 54 52 49 42 40 43 42 40 36 41 48 52 53 57 54 27 25 42 58 52 59 62 60 56 67 59 61 66
46 53 61 64 63 58 54 53 53 52 51 57 55 53 51 54 57 55 51 43 53 50 51 51 50 47 56 63 58 61 62 66 62 48 71 72 69 64 59 59 60 62 58
48 50 53 61 69 67 61 52 49 49 43 46 45 46 46 48 53 54 56 56 48 53 49 49 55 47 53 58 51 64 66 62 69 68 70 73 69 62 61 56 59 56 54
37 35 37 45 54 65 66 60 44 41 41 40 40 44 46 43 41 46 46 48 47 46 49 45 48 48 52 59 53 56 57 59 63 63 66 75 74 64 59 53 54 52 54
Wind_Direction_500mb
160 150 126 115 107 104 90 79 73 81 96 87 91 79 77 85 92 116 101 86 85 87 88 94 89 85 86 86 84 86 87 89 90 89 88 87 85 85 84 82 85 84 85
156 149 128 118 109 108 96 83 77 84 94 91 99 89 77 83 98 111 102 97 95 98 93 92 96 91 88 84 85 87 84 82 82 84 88 83 78 82 79 74 76 90 95
159 147 131 123 116 114 105 87 84 84 93 93 102 93 78 78 84 106 105 104 103 104 106 106 101 96 96 97 94 90 88 78 69 70 88 81 73 69 67 69 95 100 91
159 145 134 127 120 118 111 96 90 84 89 96 105 100 81 81 85 90 93 94 92 92 95 97 98 98 91 92 92 89 84 91 85 88 80 81 74 60 70 78 72 76 87
155 147 138 132 127 123 114 107 97 85 85 90 100 102 86 86 87 92 91 96 88 95 95 94 99 95 104 101 95 89 83 78 75 79 79 76 72 66 67 61 72 71 78
149 148 144 136 133 127 123 116 107 90 84 89 90 91 93 89 87 91 89 83 94 89 95 95 99 102 101 103 103 96 78 93 75 72 59 59 70 68 64 67 81 89 91
149 152 149 142 138 132 129 122 114 100 86 87 88 95 96 98 97 96 98 94 96 92 94 101 103 108 108 104 96 97 93 87 84 84 80 70 55 62 62 61 81 84 105
160 161 157 149 144 140 136 134 122 115 97 91 93 100 107 105 96 90 109 110 105 104 96 101 105 108 111 120 119 92 76 67 61 82 70 73 59 61 61 83 91 105 102
173 171 166 158 153 149 145 148 133 130 115 102 98 100 106 96 87 90 107 120 118 102 101 102 103 103 106 111 118 126 112 76 71 102 89 73 50 74 63 68 93 113 100
189 185 178 169 164 162 158 160 151 146 137 123 114 114 113 111 104 111 118 116 128 117 111 108 107 107 108 108 139 125 77 53 71 90 85 73 65 93 108 87 113 107 114
199 205 186 179 175 174 172 172 170 166 158 144 132 125 125 118 106 115 107 109 114 117 124 122 114 109 105 104 142 95 49 30 50 65 80 82 82 63 73 116 117 132 119
189 196 188 193 185 184 186 184 185 182 180 173 169 159 155 136 113 123 114 116 113 115 121 124 118 112 107 105 118 64 16 57 46 59 80 103 114 80 159 293 197 136 124
184 189 195 214 197 193 194 196 199 197 200 201 203 207 197 165 138 125 142 133 127 127 128 125 117 87 101 100 91 58 49 48 44 54 64 90 106 87 80 254 125 123 169
191 189 195 196 189 203 196 203 208 211 212 211 209 222 235 231 252 240 218 190 190 168 161 150 112 64 83 201 177 230 327 2 28 35 31 24 311 305 319 331 269 331 166
202 200 197 197 195 201 206 213 210 214 218 222 218 217 230 236 240 233 232 218 220 213 212 204 219 217 216 235 239 240 268 306 340 0 353 346 338 303 305 229 286 286 205
217 209 207 208 205 202 206 208 215 210 212 212 224 232 224 232 244 244 235 234 234 236 240 241 247 235 248 253 260 280 272 284 310 320 322 320 314 312 308 302 295 257 263
218 223 213 212 213 210 211 212 215 217 218 226 224 239 231 237 241 254 256 248 243 243 245 251 257 254 257 267 277 275 277 288 297 304 308 303 302 301 299 296 294 293 272
230 228 222 223 215 215 216 215 219 221 223 225 228 230 242 236 241 244 253 258 254 248 248 252 252 256 262 269 278 283 284 286 289 290 295 299 298 294 290 290 288 286 281
230 229 230 231 229 218 221 218 220 220 227 230 229 240 240 241 241 245 249 253 256 254 251 250 248 252 263 275 284 290 292 294 293 289 290 289 292 293 291 286 282 280 275
234 239 242 243 236 234 221 223 224 225 223 229 232 236 240 245 239 243 248 250 255 257 254 252 253 254 266 275 277 279 284 284 286 287 289 287 286 287 288 288 283 279 278
226 235 241 237 237 237 231 223 224 226 226 228 232 234 237 242 249 241 244 250 255 258 260 258 256 258 269 273 270 277 282 286 288 292 292 293 291 284 282 282 283 282 281
217 228 238 248 246 246 247 246 236 231 232 235 235 234 236 243 248 252 247 249 256 263 261 260 262 262 262 267 272 278 284 285 289 297 299 298 297 290 293 294 286 283 278
216 216 220 232 245 250 252 250 245 238 237 236 236 236 238 240 248 255 255 257 258 261 266 270 270 272 273 275 277 272 274 278 287 297 291 298 300 294 296 304 292 290 290
224 224 224 225 233 237 241 248 247 253 253 243 242 244 244 248 249 255 263 267 267 262 264 267 269 267 273 270 269 277 275 276 275 285 292 300 301 302 298 304 299 293 289
245 239 234 232 228 233 237 237 242 245 248 247 248 252 253 252 254 256 262 263 265 272 274 269 280 270 277 287 273 291 275 281 289 273 283 294 294 302 300 301 298 297 292
242 241 239 238 231 228 229 238 239 235 247 249 251 253 257 258 255 254 256 261 265 268 272 274 274 276 277 284 276 280 291 283 287 285 290 295 296 300 302 300 297 298 304
Wind_Speed_850mb
29 22 19 19 19 21 24 27 29 27 29 28 36 28 25 27 27 27 25 22 18 24 31 33 35 35 40 42 41 40 42 41 40 41 41 41 38 37 36 37 36 37 38
35 25 23 23 22 23 23 27 30 30 29 31 39 27 21 28 34 39 34 30 30 28 32 30 36 42 43 41 39 38 36 34 33 32 33 33 29 28 27 23 24 25 24
32 27 26 25 26 25 23 25 30 31 29 34 38 27 24 33 34 34 33 34 36 33 33 35 35 36 38 37 33 29 26 26 21 19 25 33 28 24 16 15 15 18 22
34 28 28 27 26 26 25 24 29 32 29 31 32 29 26 30 30 30 29 32 33 34 31 30 30 33 37 34 31 24 23 17 22 21 21 27 20 18 22 23 24 20 18
36 30 29 29 27 25 24 25 27 30 30 27 25 22 29 34 31 29 29 32 33 35 35 35 33 36 36 33 31 30 25 25 21 18 23 23 25 22 19 19 23 27 27
38 31 29 29 27 26 23 25 25 26 28 28 26 23 28 29 31 31 37 32 35 29 32 29 31 35 35 31 26 27 20 18 21 23 22 21 24 24 21 19 20 25 28
36 31 30 29 27 26 24 23 24 22 25 26 25 26 28 30 21 21 31 29 33 24 30 33 36 37 34 27 22 22 19 22 18 18 13 17 18 18 13 10 14 23 22
31 32 31 30 28 25 25 22 22 21 21 22 22 23 22 20 17 21 28 32 25 27 28 30 29 28 28 24 18 15 17 12 12 9 10 18 16 15 14 11 14 22 16
26 28 30 31 29 26 25 22 21 19 17 18 19 18 16 15 15 14 17 22 23 21 23 25 24 22 24 19 15 11 8 7 7 15 16 17 14 16 15 11 23 16 16
22 24 32 31 29 26 24 22 18 17 16 15 15 14 13 13 13 13 15 20 18 17 19 20 19 19 17 16 10 10 7 9 7 11 14 11 9 8 9 8 14 12 19
23 21 34 32 30 27 25 22 20 17 14 12 11 10 9 9 11 13 13 13 16 16 18 16 15 14 14 14 7 5 8 10 12 13 12 18 12 10 13 10 6 12 18
31 26 27 30 32 29 25 22 19 16 13 10 9 9 8 7 9 8 8 8 10 16 16 15 13 11 12 13 7 6 6 9 14 11 10 10 5 3 2 4 4 15 13
38 34 32 27 36 33 29 26 22 19 16 14 12 10 8 5 4 4 4 4 7 10 12 10 8 5 7 7 5 4 4 9 13 10 8 7 6 3 3 2 4 2 10
43 40 40 39 37 31 28 27 25 24 22 21 19 16 10 6 4 4 4 5 6 7 7 5 3 2 2 1 2 2 3 6 7 8 7 6 0 3 6 1 1 3 7
53 50 46 44 45 41 33 31 31 30 29 21 19 19 17 14 10 10 8 9 10 9 8 6 4 3 4 4 5 4 6 8 9 7 10 8 8 6 4 6 8 7 10
39 50 55 51 47 47 42 36 31 30 28 29 27 23 20 20 19 15 11 12 12 13 11 9 8 7 7 6 7 6 7 10 13 13 11 11 12 13 13 12 13 10 15
32 33 48 52 52 50 51 45 40 37 34 33 30 30 22 25 24 22 17 15 16 16 16 15 13 11 10 9 9 11 14 14 17 21 21 20 20 21 20 21 21 20 18
33 37 35 40 48 52 53 52 47 42 39 37 36 35 30 30 30 28 26 22 20 22 21 19 16 15 13 13 15 18 21 24 26 28 31 33 32 32 30 30 31 30 28
39 35 36 38 40 47 50 51 53 51 46 42 40 38 35 32 35 35 32 29 28 27 25 24 23 21 21 22 25 26 29 33 34 37 38 40 43 44 43 39 39 40 39
37 38 38 40 41 40 49 50 52 53 52 49 48 43 39 37 33 40 39 36 35 32 31 30 29 29 28 31 35 36 40 43 45 47 48 50 50 51 53 54 51 51 48
40 40 43 40 39 43 48 55 55 56 57 57 57 52 46 41 38 33 37 41 42 39 34 33 34 35 36 44 49 51 54 53 53 55 57 57 58 57 56 59 62 61 63
46 45 43 43 41 43 45 45 55 55 56 53 54 55 52 50 45 38 36 39 39 37 38 41 40 44 45 51 51 53 56 60 61 55 55 50 50 45 48 59 62 66 67
55 55 51 50 52 51 48 44 44 47 51 53 57 54 54 54 52 49 42 40 43 42 40 36 41 48 52 53 57 54 27 25 42 58 52 59 62 60 56 67 59 61 66
46 53 61 64 63 58 54 53 53 52 51 57 55 53 51 54 57 55 51 43 53 50 51 51 50 47 56 63 58 61 62 66 62 48 71 72 69 64 59 59 60 62 58
48 50 53 61 69 67 61 52 49 49 43 46 45 46 46 48 53 54 56 56 48 53 49 49 55 47 53 58 51 64 66 62 69 68 70 73 69 62 61 56 59 56 54
37 35 37 45 54 65 66 60 44 41 41 40 40 44 46 43 41 46 46 48 47 46 49 45 48 48 52 59 53 56 57 59 63 63 66 75 74 64 59 53 54 52 54
Wind_Direction_850mb
160 150 126 115 107 104 90 79 73 81 96 87 91 79 77 85 92 116 101 86 85 87 88 94 89 85 86 86 84 86 87 89 90 89 88 87 85 85 84 82 85 84 85
156 149 128 118 109 108 96 83 77 84 94 91 99 89 77 83 98 111 102 97 95 98 93 92 96 91 88 84 85 87 84 82 82 84 88 83 78 82 79 74 76 90 95
159 147 131 123 116 114 105 87 84 84 93 93 102 93 78 78 84 106 105 104 103 104 106 106 101 96 96 97 94 90 88 78 69 70 88 81 73 69 67 69 95 100 91
159 145 134 127 120 118 111 96 90 84 89 96 105 100 81 81 85 90 93 94 92 92 95 97 98 98 91 92 92 89 84 91 85 88 80 81 74 60 70 78 72 76 87
155 147 138 132 127 123 114 107 97 85 85 90 100 102 86 86 87 92 91 96 88 95 95 94 99 95 104 101 95 89 83 78 75 79 79 76 72 66 67 61 72 71 78
149 148 144 136 133 127 123 116 107 90 84 89 90 91 93 89 87 91 89 83 94 89 95 95 99 102 101 103 103 96 78 93 75 72 59 59 70 68 64 67 81 89 91
149 152 149 142 138 132 129 122 114 100 86 87 88 95 96 98 97 96 98 94 96 92 94 101 103 108 108 104 96 97 93 87 84 84 80 70 55 62 62 61 81 84 105
160 161 157 149 144 140 136 134 122 115 97 91 93 100 107 105 96 90 109 110 105 104 96 101 105 108 111 120 119 92 76 67 61 82 70 73 59 61 61 83 91 105 102
173 171 166 158 153 149 145 148 133 130 115 102 98 100 106 96 87 90 107 120 118 102 101 102 103 103 106 111 118 126 112 76 71 102 89 73 50 74 63 68 93 113 100
189 185 178 169 164 162 158 160 151 146 137 123 114 114 113 111 104 111 118 116 128 117 111 108 107 107 108 108 139 125 77 53 71 90 85 73 65 93 108 87 113 107 114
199 205 186 179 175 174 172 172 170 166 158 144 132 125 125 118 106 115 107 109 114 117 124 122 114 109 105 104 142 95 49 30 50 65 80 82 82 63 73 116 117 132 119
189 196 188 193 185 184 186 184 185 182 180 173 169 159 155 136 113 123 114 116 113 115 121 124 118 112 107 105 118 64 16 57 46 59 80 103 114 80 159 293 197 136 124
184 189 195 214 197 193 194 196 199 197 200 201 203 207 197 165 138 125 142 133 127 127 128 125 117 87 101 100 91 58 49 48 44 54 64 90 106 87 80 254 125 123 169
191 189 195 196 189 203 196 203 208 211 212 211 209 222 235 231 252 240 218 190 190 168 161 150 112 64 83 201 177 230 327 2 28 35 31 24 311 305 319 331 269 331 166
202 200 197 197 195 201 206 213 210 214 218 222 218 217 230 236 240 233 232 218 220 213 212 204 219 217 216 235 239 240 268 306 340 0 353 346 338 303 305 229 286 286 205
217 209 207 208 205 202 206 208 215 210 212 212 224 232 224 232 244 244 235 234 234 236 240 241 247 235 248 253 260 280 272 284 310 320 322 320 314 312 308 302 295 257 263
218 223 213 212 213 210 211 212 215 217 218 226 224 239 231 237 241 254 256 248 243 243 245 251 257 254 257 267 277 275 277 288 297 304 308 303 302 301 299 296 294 293 272
230 228 222 223 215 215 216 215 219 221 223 225 228 230 242 236 241 244 253 258 254 248 248 252 252 256 262 269 278 283 284 286 289 290 295 299 298 294 290 290 288 286 281
230 229 230 231 229 218 221 218 220 220 227 230 229 240 240 241 241 245 249 253 256 254 251 250 248 252 263 275 284 290 292 294 293 289 290 289 292 293 291 286 282 280 275
234 239 242 243 236 234 221 223 224 225 223 229 232 236 240 245 239 243 248 250 255 257 254 252 253 254 266 275 277 279 284 284 286 287 289 287 286 287 288 288 283 279 278
226 235 241 237 237 237 231 223 224 226 226 228 232 234 237 242 249 241 244 250 255 258 260 258 256 258 269 273 270 277 282 286 288 292 292 293 291 284 282 282 283 282 281
217 228 238 248 246 246 247 246 236 231 232 235 235 234 236 243 248 252 247 249 256 263 261 260 262 262 262 267 272 278 284 285 289 297 299 298 297 290 293 294 286 283 278
216 216 220 232 245 250 252 250 245 238 237 236 236 236 238 240 248 255 255 257 258 261 266 270 270 272 273 275 277 272 274 278 287 297 291 298 300 294 296 304 292 290 290
224 224 224 225 233 237 241 248 247 253 253 243 242 244 244 248 249 255 263 267 267 262 264 267 269 267 273 270 269 277 275 276 275 285 292 300 301 302 298 304 299 293 289
245 239 234 232 228 233 237 237 242 245 248 247 248 252 253 252 254 256 262 263 265 272 274 269 280 270 277 287 273 291 275 281 289 273 283 294 294 302 300 301 298 297 292
242 241 239 238 231 228 229 238 239 235 247 249 251 253 257 258 255 254 256 261 265 268 272 274 274 276 277 284 276 280 291 283 287 285 290 295 296 300 302 300 297 298 304